contact:dominique.lefevre@mio.osupytheas.fr, maurice.libes@osupytheas.fr, didier.mallarino@osupytheas.fr
Project:EMSO http://www.emso-fr.org/EMSO-France
Depth: 2436.0 m
Title:EMSO Ligure Ouest : Data MII capteur MICROCAT
DateTime_Computer,Latitude,Longitude,Temperature,Conductivity,Pressure,DateTime_Instrument
DateTime_Computer,Latitude,Longitude,degC,S m-1,dbar,DateTime_Instrument
2022-06-03T00:00:09Z,42.805,6.029,13.3018,4.60085,2470.754,2022-6-03T02:01:52Z
2022-06-03T00:03:12Z,42.805,6.029,13.3015,4.60091,2470.717,2022-6-03T02:04:55Z
2022-06-03T00:06:15Z,42.805,6.029,13.3015,4.60097,2470.73,2022-6-03T02:07:58Z
2022-06-03T00:09:19Z,42.805,6.029,13.3015,4.60060,2470.73,2022-6-03T02:11:01Z
2022-06-03T00:12:22Z,42.805,6.029,13.3011,4.60075,2470.693,2022-6-03T02:14:04Z
2022-06-03T00:15:25Z,42.805,6.029,13.3026,4.60092,2470.717,2022-6-03T02:17:07Z
2022-06-03T00:18:28Z,42.805,6.029,13.3014,4.60084,2470.707,2022-6-03T02:20:10Z
2022-06-03T00:21:31Z,42.805,6.029,13.3018,4.60081,2470.693,2022-6-03T02:23:13Z
2022-06-03T00:24:34Z,42.805,6.029,13.3015,4.60075,2470.693,2022-6-03T02:26:17Z
2022-06-03T00:27:37Z,42.805,6.029,13.3024,4.60075,2470.717,2022-6-03T02:29:20Z
2022-06-03T00:30:40Z,42.805,6.029,13.3008,4.60073,2470.693,2022-6-03T02:32:23Z
2022-06-03T00:33:43Z,42.805,6.029,13.3006,4.60059,2470.693,2022-6-03T02:35:26Z
2022-06-03T00:36:47Z,42.805,6.029,13.3021,4.60091,2470.707,2022-6-03T02:38:29Z
2022-06-03T00:39:50Z,42.805,6.029,13.3020,4.60071,2470.656,2022-6-03T02:41:32Z
2022-06-03T00:42:53Z,42.805,6.029,13.3011,4.60068,2470.693,2022-6-03T02:44:35Z
2022-06-03T00:45:56Z,42.805,6.029,13.3026,4.60086,2470.693,2022-6-03T02:47:38Z
2022-06-03T00:48:59Z,42.805,6.029,13.3009,4.60069,2470.693,2022-6-03T02:50:41Z
2022-06-03T00:52:02Z,42.805,6.029,13.3017,4.60081,2470.717,2022-6-03T02:53:45Z
2022-06-03T00:55:05Z,42.805,6.029,13.3017,4.60090,2470.67,2022-6-03T02:56:48Z
2022-06-03T00:58:08Z,42.805,6.029,13.3017,4.60079,2470.67,2022-6-03T02:59:51Z
2022-06-03T01:01:12Z,42.805,6.029,13.3015,4.60097,2470.684,2022-6-03T03:02:54Z
2022-06-03T01:04:15Z,42.805,6.029,13.3027,4.60072,2470.684,2022-6-03T03:05:57Z
2022-06-03T01:07:18Z,42.805,6.029,13.3016,4.60091,2470.67,2022-6-03T03:09:00Z
2022-06-03T01:10:21Z,42.805,6.029,13.3013,4.60079,2470.67,2022-6-03T03:12:03Z
2022-06-03T01:13:24Z,42.805,6.029,13.3009,4.60082,2470.717,2022-6-03T03:15:06Z
2022-06-03T01:16:27Z,42.805,6.029,13.3013,4.60084,2470.707,2022-6-03T03:18:09Z
2022-06-03T01:19:30Z,42.805,6.029,13.3014,4.60070,2470.67,2022-6-03T03:21:13Z
2022-06-03T01:22:33Z,42.805,6.029,13.3009,4.60062,2470.684,2022-6-03T03:24:16Z
2022-06-03T01:25:36Z,42.805,6.029,13.3014,4.60088,2470.646,2022-6-03T03:27:19Z
2022-06-03T01:28:40Z,42.805,6.029,13.3011,4.60072,2470.684,2022-6-03T03:30:22Z
2022-06-03T01:31:43Z,42.805,6.029,13.3009,4.60084,2470.67,2022-6-03T03:33:25Z
2022-06-03T01:34:46Z,42.805,6.029,13.3014,4.60074,2470.693,2022-6-03T03:36:28Z
2022-06-03T01:37:49Z,42.805,6.029,13.3015,4.60064,2470.693,2022-6-03T03:39:31Z
2022-06-03T01:40:52Z,42.805,6.029,13.3019,4.60088,2470.646,2022-6-03T03:42:34Z
2022-06-03T01:43:55Z,42.805,6.029,13.3023,4.60095,2470.684,2022-6-03T03:45:38Z
2022-06-03T01:46:58Z,42.805,6.029,13.3015,4.60077,2470.67,2022-6-03T03:48:41Z
2022-06-03T01:50:01Z,42.805,6.029,13.3012,4.60072,2470.646,2022-6-03T03:51:44Z
2022-06-03T01:53:05Z,42.805,6.029,13.3019,4.60081,2470.661,2022-6-03T03:54:47Z
2022-06-03T01:56:08Z,42.805,6.029,13.3020,4.60081,2470.646,2022-6-03T03:57:50Z
2022-06-03T01:59:11Z,42.805,6.029,13.3020,4.60086,2470.707,2022-6-03T04:00:53Z
2022-06-03T02:02:14Z,42.805,6.029,13.3017,4.60090,2470.693,2022-6-03T04:03:56Z
2022-06-03T02:05:17Z,42.805,6.029,13.3021,4.60076,2470.684,2022-6-03T04:06:59Z
2022-06-03T02:08:20Z,42.805,6.029,13.3016,4.60074,2470.67,2022-6-03T04:10:02Z
2022-06-03T02:11:23Z,42.805,6.029,13.3014,4.60070,2470.67,2022-6-03T04:13:06Z
2022-06-03T02:14:26Z,42.805,6.029,13.3017,4.60091,2470.684,2022-6-03T04:16:09Z
2022-06-03T02:17:29Z,42.805,6.029,13.3013,4.60081,2470.67,2022-6-03T04:19:12Z
2022-06-03T02:20:33Z,42.805,6.029,13.3010,4.60074,2470.67,2022-6-03T04:22:15Z
2022-06-03T02:23:36Z,42.805,6.029,13.3020,4.60087,2470.67,2022-6-03T04:25:18Z
2022-06-03T02:26:39Z,42.805,6.029,13.3014,4.60077,2470.646,2022-6-03T04:28:21Z
2022-06-03T02:29:42Z,42.805,6.029,13.3021,4.60073,2470.707,2022-6-03T04:31:24Z
2022-06-03T02:32:45Z,42.805,6.029,13.3019,4.60077,2470.646,2022-6-03T04:34:27Z
2022-06-03T02:35:48Z,42.805,6.029,13.3015,4.60079,2470.67,2022-6-03T04:37:31Z
2022-06-03T02:38:51Z,42.805,6.029,13.3015,4.60061,2470.67,2022-6-03T04:40:34Z
2022-06-03T02:41:54Z,42.805,6.029,13.3020,4.60069,2470.646,2022-6-03T04:43:37Z
2022-06-03T02:44:58Z,42.805,6.029,13.3015,4.60072,2470.684,2022-6-03T04:46:40Z
2022-06-03T02:48:01Z,42.805,6.029,13.3011,4.60073,2470.707,2022-6-03T04:49:43Z
2022-06-03T02:51:04Z,42.805,6.029,13.3016,4.60064,2470.661,2022-6-03T04:52:46Z
2022-06-03T02:54:07Z,42.805,6.029,13.3018,4.60074,2470.646,2022-6-03T04:55:49Z
2022-06-03T02:57:10Z,42.805,6.029,13.3015,4.60074,2470.661,2022-6-03T04:58:52Z
2022-06-03T03:00:13Z,42.805,6.029,13.3011,4.60063,2470.624,2022-6-03T05:01:55Z
2022-06-03T03:03:16Z,42.805,6.029,13.3010,4.60086,2470.661,2022-6-03T05:04:59Z
2022-06-03T03:06:19Z,42.805,6.029,13.3013,4.60067,2470.624,2022-6-03T05:08:02Z
2022-06-03T03:09:22Z,42.805,6.029,13.3011,4.60055,2470.614,2022-6-03T05:11:05Z
2022-06-03T03:12:26Z,42.805,6.029,13.3015,4.60067,2470.6,2022-6-03T05:14:08Z
2022-06-03T03:15:29Z,42.805,6.029,13.3015,4.60074,2470.646,2022-6-03T05:17:11Z
2022-06-03T03:18:32Z,42.805,6.029,13.3010,4.60067,2470.624,2022-6-03T05:20:14Z
2022-06-03T03:21:35Z,42.805,6.029,13.3019,4.60054,2470.646,2022-6-03T05:23:17Z
2022-06-03T03:24:38Z,42.805,6.029,13.3014,4.60072,2470.637,2022-6-03T05:26:20Z
2022-06-03T03:27:41Z,42.805,6.029,13.3013,4.60075,2470.637,2022-6-03T05:29:23Z
2022-06-03T03:30:44Z,42.805,6.029,13.3016,4.60079,2470.637,2022-6-03T05:32:27Z
2022-06-03T03:33:47Z,42.805,6.029,13.3015,4.60078,2470.624,2022-6-03T05:35:30Z
2022-06-03T03:36:51Z,42.805,6.029,13.3021,4.60080,2470.624,2022-6-03T05:38:33Z
2022-06-03T03:39:54Z,42.805,6.029,13.3009,4.60069,2470.637,2022-6-03T05:41:36Z
2022-06-03T03:42:57Z,42.805,6.029,13.3014,4.60067,2470.646,2022-6-03T05:44:39Z
2022-06-03T03:46:00Z,42.805,6.029,13.3011,4.60064,2470.614,2022-6-03T05:47:42Z
2022-06-03T03:49:03Z,42.805,6.029,13.3014,4.60071,2470.624,2022-6-03T05:50:45Z
2022-06-03T03:52:06Z,42.805,6.029,13.3021,4.60061,2470.624,2022-6-03T05:53:48Z
2022-06-03T03:55:09Z,42.805,6.029,13.3010,4.60064,2470.646,2022-6-03T05:56:52Z
2022-06-03T03:58:12Z,42.805,6.029,13.3006,4.60070,2470.624,2022-6-03T05:59:55Z
2022-06-03T04:01:15Z,42.805,6.029,13.3015,4.60087,2470.661,2022-6-03T06:02:58Z
2022-06-03T04:04:19Z,42.805,6.029,13.3008,4.60088,2470.624,2022-6-03T06:06:01Z
2022-06-03T04:07:22Z,42.805,6.029,13.3011,4.60072,2470.646,2022-6-03T06:09:04Z
2022-06-03T04:10:25Z,42.805,6.029,13.3011,4.60076,2470.6,2022-6-03T06:12:07Z
2022-06-03T04:13:28Z,42.805,6.029,13.3014,4.60068,2470.6,2022-6-03T06:15:10Z
2022-06-03T04:16:31Z,42.805,6.029,13.3019,4.60079,2470.6,2022-6-03T06:18:13Z
2022-06-03T04:19:34Z,42.805,6.029,13.3011,4.60063,2470.624,2022-6-03T06:21:16Z
2022-06-03T04:22:37Z,42.805,6.029,13.3021,4.60063,2470.67,2022-6-03T06:24:20Z
2022-06-03T04:25:40Z,42.805,6.029,13.3006,4.60053,2470.6,2022-6-03T06:27:23Z
2022-06-03T04:28:43Z,42.805,6.029,13.3015,4.60062,2470.6,2022-6-03T06:30:26Z
2022-06-03T04:31:47Z,42.805,6.029,13.3008,4.60074,2470.591,2022-6-03T06:33:29Z
2022-06-03T04:34:50Z,42.805,6.029,13.3018,4.60075,2470.6,2022-6-03T06:36:32Z
2022-06-03T04:37:53Z,42.805,6.029,13.3019,4.60059,2470.646,2022-6-03T06:39:35Z
2022-06-03T04:40:56Z,42.805,6.029,13.3013,4.60069,2470.624,2022-6-03T06:42:38Z
2022-06-03T04:43:59Z,42.805,6.029,13.3015,4.60079,2470.624,2022-6-03T06:45:41Z
2022-06-03T04:47:02Z,42.805,6.029,13.3017,4.60094,2470.624,2022-6-03T06:48:45Z
2022-06-03T04:50:05Z,42.805,6.029,13.3011,4.60076,2470.646,2022-6-03T06:51:48Z
2022-06-03T04:53:08Z,42.805,6.029,13.3013,4.60078,2470.6,2022-6-03T06:54:51Z
2022-06-03T04:56:11Z,42.805,6.029,13.3013,4.60059,2470.614,2022-6-03T06:57:54Z
2022-06-03T04:59:15Z,42.805,6.029,13.3009,4.60054,2470.637,2022-6-03T07:00:57Z
2022-06-03T05:02:18Z,42.805,6.029,13.3027,4.60093,2470.624,2022-6-03T07:04:00Z
2022-06-03T05:05:21Z,42.805,6.029,13.3013,4.60071,2470.624,2022-6-03T07:07:03Z
2022-06-03T05:08:24Z,42.805,6.029,13.3011,4.60068,2470.637,2022-6-03T07:10:06Z
2022-06-03T05:11:27Z,42.805,6.029,13.3011,4.60067,2470.614,2022-6-03T07:13:09Z
2022-06-03T05:14:30Z,42.805,6.029,13.3009,4.60057,2470.614,2022-6-03T07:16:13Z
2022-06-03T05:17:33Z,42.805,6.029,13.3010,4.60063,2470.624,2022-6-03T07:19:16Z
2022-06-03T05:20:36Z,42.805,6.029,13.3009,4.60061,2470.624,2022-6-03T07:22:19Z
2022-06-03T05:23:40Z,42.805,6.029,13.3021,4.60083,2470.624,2022-6-03T07:25:22Z
2022-06-03T05:26:43Z,42.805,6.029,13.3019,4.60070,2470.646,2022-6-03T07:28:25Z
2022-06-03T05:29:46Z,42.805,6.029,13.3019,4.60085,2470.646,2022-6-03T07:31:28Z
2022-06-03T05:32:49Z,42.805,6.029,13.3008,4.60083,2470.624,2022-6-03T07:34:31Z
2022-06-03T05:35:52Z,42.805,6.029,13.3020,4.60087,2470.6,2022-6-03T07:37:34Z
2022-06-03T05:38:55Z,42.805,6.029,13.3011,4.60102,2470.624,2022-6-03T07:40:38Z
2022-06-03T05:41:58Z,42.805,6.029,13.3009,4.60066,2470.614,2022-6-03T07:43:41Z
2022-06-03T05:45:01Z,42.805,6.029,13.3008,4.60077,2470.637,2022-6-03T07:46:44Z
2022-06-03T05:48:04Z,42.805,6.029,13.3013,4.60091,2470.6,2022-6-03T07:49:47Z
2022-06-03T05:51:08Z,42.805,6.029,13.3011,4.60074,2470.6,2022-6-03T07:52:50Z
2022-06-03T05:54:11Z,42.805,6.029,13.3014,4.60081,2470.6,2022-6-03T07:55:53Z
2022-06-03T05:57:14Z,42.805,6.029,13.3014,4.60069,2470.67,2022-6-03T07:58:56Z
2022-06-03T06:00:17Z,42.805,6.029,13.3015,4.60079,2470.684,2022-6-03T08:01:59Z
2022-06-03T06:03:20Z,42.805,6.029,13.3027,4.60092,2470.646,2022-6-03T08:05:02Z
2022-06-03T06:06:23Z,42.805,6.029,13.3014,4.60072,2470.637,2022-6-03T08:08:06Z
2022-06-03T06:09:26Z,42.805,6.029,13.3015,4.60072,2470.637,2022-6-03T08:11:09Z
2022-06-03T06:12:29Z,42.805,6.029,13.3011,4.60078,2470.624,2022-6-03T08:14:12Z
2022-06-03T06:15:32Z,42.805,6.029,13.3014,4.60081,2470.637,2022-6-03T08:17:15Z
2022-06-03T06:18:36Z,42.805,6.029,13.3007,4.60068,2470.624,2022-6-03T08:20:18Z
2022-06-03T06:21:39Z,42.805,6.029,13.3006,4.60062,2470.646,2022-6-03T08:23:21Z
2022-06-03T06:24:42Z,42.805,6.029,13.3011,4.60077,2470.661,2022-6-03T08:26:24Z
2022-06-03T06:27:45Z,42.805,6.029,13.3014,4.60081,2470.67,2022-6-03T08:29:27Z
2022-06-03T06:30:48Z,42.805,6.029,13.3006,4.60064,2470.661,2022-6-03T08:32:30Z
2022-06-03T06:33:51Z,42.805,6.029,13.3019,4.60073,2470.661,2022-6-03T08:35:34Z
2022-06-03T06:36:54Z,42.805,6.029,13.3009,4.60074,2470.637,2022-6-03T08:38:37Z
2022-06-03T06:39:57Z,42.805,6.029,13.3019,4.60057,2470.646,2022-6-03T08:41:40Z
2022-06-03T06:43:01Z,42.805,6.029,13.3005,4.60052,2470.67,2022-6-03T08:44:43Z
2022-06-03T06:46:04Z,42.805,6.029,13.3015,4.60069,2470.707,2022-6-03T08:47:46Z
2022-06-03T06:49:07Z,42.805,6.029,13.3015,4.60062,2470.67,2022-6-03T08:50:49Z
2022-06-03T06:52:10Z,42.805,6.029,13.3011,4.60060,2470.67,2022-6-03T08:53:52Z
2022-06-03T06:55:13Z,42.805,6.029,13.3008,4.60058,2470.693,2022-6-03T08:56:55Z
2022-06-03T06:58:16Z,42.805,6.029,13.3024,4.60078,2470.67,2022-6-03T08:59:59Z
2022-06-03T07:01:19Z,42.805,6.029,13.3014,4.60095,2470.684,2022-6-03T09:03:02Z
2022-06-03T07:04:22Z,42.805,6.029,13.3026,4.60093,2470.684,2022-6-03T09:06:05Z
2022-06-03T07:07:25Z,42.805,6.029,13.3011,4.60081,2470.67,2022-6-03T09:09:08Z
2022-06-03T07:10:29Z,42.805,6.029,13.3019,4.60074,2470.684,2022-6-03T09:12:11Z
2022-06-03T07:13:32Z,42.805,6.029,13.3014,4.60101,2470.67,2022-6-03T09:15:14Z
2022-06-03T07:16:35Z,42.805,6.029,13.3028,4.60084,2470.67,2022-6-03T09:18:17Z
2022-06-03T07:19:38Z,42.805,6.029,13.3016,4.60085,2470.684,2022-6-03T09:21:20Z
2022-06-03T07:22:41Z,42.805,6.029,13.3009,4.60066,2470.67,2022-6-03T09:24:23Z
2022-06-03T07:25:44Z,42.805,6.029,13.3009,4.60054,2470.67,2022-6-03T09:27:27Z
2022-06-03T07:28:47Z,42.805,6.029,13.3008,4.60061,2470.67,2022-6-03T09:30:30Z
2022-06-03T07:31:50Z,42.805,6.029,13.3009,4.60050,2470.67,2022-6-03T09:33:33Z
2022-06-03T07:34:53Z,42.805,6.029,13.3011,4.60069,2470.684,2022-6-03T09:36:36Z
2022-06-03T07:37:57Z,42.805,6.029,13.3006,4.60072,2470.693,2022-6-03T09:39:39Z
2022-06-03T07:41:00Z,42.805,6.029,13.3004,4.60052,2470.67,2022-6-03T09:42:42Z
2022-06-03T07:44:03Z,42.805,6.029,13.3015,4.60067,2470.67,2022-6-03T09:45:45Z
2022-06-03T07:47:06Z,42.805,6.029,13.3020,4.60079,2470.693,2022-6-03T09:48:48Z
2022-06-03T07:50:09Z,42.805,6.029,13.3010,4.60075,2470.693,2022-6-03T09:51:51Z
2022-06-03T07:53:12Z,42.805,6.029,13.3014,4.60092,2470.707,2022-6-03T09:54:55Z
2022-06-03T07:56:15Z,42.805,6.029,13.3006,4.60064,2470.67,2022-6-03T09:57:58Z
2022-06-03T07:59:18Z,42.805,6.029,13.3016,4.60064,2470.693,2022-6-03T10:01:01Z
2022-06-03T08:02:22Z,42.805,6.029,13.3011,4.60074,2470.693,2022-6-03T10:04:04Z
2022-06-03T08:05:25Z,42.805,6.029,13.3012,4.60081,2470.693,2022-6-03T10:07:07Z
2022-06-03T08:08:28Z,42.805,6.029,13.3022,4.60099,2470.67,2022-6-03T10:10:10Z
2022-06-03T08:11:31Z,42.805,6.029,13.3015,4.60098,2470.693,2022-6-03T10:13:13Z
2022-06-03T08:14:34Z,42.805,6.029,13.3021,4.60077,2470.67,2022-6-03T10:16:16Z
2022-06-03T08:17:37Z,42.805,6.029,13.3015,4.60103,2470.693,2022-6-03T10:19:20Z
2022-06-03T08:20:40Z,42.805,6.029,13.3013,4.60072,2470.707,2022-6-03T10:22:23Z
2022-06-03T08:23:43Z,42.805,6.029,13.3019,4.60061,2470.684,2022-6-03T10:25:26Z
2022-06-03T08:26:47Z,42.805,6.029,13.3014,4.60073,2470.684,2022-6-03T10:28:29Z
2022-06-03T08:29:50Z,42.805,6.029,13.3015,4.60069,2470.684,2022-6-03T10:31:32Z
2022-06-03T08:32:53Z,42.805,6.029,13.3007,4.60078,2470.721,2022-6-03T10:34:35Z
2022-06-03T08:35:56Z,42.805,6.029,13.3020,4.60069,2470.693,2022-6-03T10:37:38Z
2022-06-03T08:38:59Z,42.805,6.029,13.3014,4.60061,2470.717,2022-6-03T10:40:41Z
2022-06-03T08:42:02Z,42.805,6.029,13.3026,4.60082,2470.67,2022-6-03T10:43:44Z
2022-06-03T08:45:05Z,42.805,6.029,13.3011,4.60069,2470.693,2022-6-03T10:46:48Z
2022-06-03T08:48:08Z,42.805,6.029,13.3012,4.60064,2470.717,2022-6-03T10:49:51Z
2022-06-03T08:51:11Z,42.805,6.029,13.3025,4.60099,2470.693,2022-6-03T10:52:54Z
2022-06-03T08:54:15Z,42.805,6.029,13.3011,4.60087,2470.646,2022-6-03T10:55:57Z
2022-06-03T08:57:18Z,42.805,6.029,13.3018,4.60095,2470.717,2022-6-03T10:59:00Z
2022-06-03T09:00:21Z,42.805,6.029,13.3009,4.60086,2470.693,2022-6-03T11:02:03Z
2022-06-03T09:03:24Z,42.805,6.029,13.3009,4.60062,2470.707,2022-6-03T11:05:06Z
2022-06-03T09:06:27Z,42.805,6.029,13.3018,4.60066,2470.693,2022-6-03T11:08:09Z
2022-06-03T09:09:30Z,42.805,6.029,13.3008,4.60060,2470.684,2022-6-03T11:11:13Z
2022-06-03T09:12:33Z,42.805,6.029,13.3014,4.60077,2470.717,2022-6-03T11:14:16Z
2022-06-03T09:15:36Z,42.805,6.029,13.3009,4.60069,2470.717,2022-6-03T11:17:19Z
2022-06-03T09:18:40Z,42.805,6.029,13.3029,4.60089,2470.67,2022-6-03T11:20:22Z
2022-06-03T09:21:43Z,42.805,6.029,13.3020,4.60092,2470.67,2022-6-03T11:23:25Z
2022-06-03T09:24:46Z,42.805,6.029,13.3020,4.60092,2470.684,2022-6-03T11:26:28Z
2022-06-03T09:27:49Z,42.805,6.029,13.3022,4.60077,2470.73,2022-6-03T11:29:31Z
2022-06-03T09:30:52Z,42.805,6.029,13.3015,4.60094,2470.693,2022-6-03T11:32:34Z
2022-06-03T09:33:55Z,42.805,6.029,13.3019,4.60084,2470.693,2022-6-03T11:35:38Z
2022-06-03T09:36:58Z,42.805,6.029,13.3027,4.60084,2470.67,2022-6-03T11:38:41Z
2022-06-03T09:40:01Z,42.805,6.029,13.3015,4.60072,2470.754,2022-6-03T11:41:44Z
2022-06-03T09:43:05Z,42.805,6.029,13.3020,4.60084,2470.754,2022-6-03T11:44:47Z
2022-06-03T09:46:08Z,42.805,6.029,13.3016,4.60107,2470.693,2022-6-03T11:47:50Z
2022-06-03T09:49:11Z,42.805,6.029,13.3017,4.60085,2470.67,2022-6-03T11:50:53Z
2022-06-03T09:52:14Z,42.805,6.029,13.3026,4.60092,2470.684,2022-6-03T11:53:56Z
2022-06-03T09:55:17Z,42.805,6.029,13.3023,4.60062,2470.73,2022-6-03T11:56:59Z
2022-06-03T09:58:20Z,42.805,6.029,13.3023,4.60092,2470.624,2022-6-03T12:00:03Z
2022-06-03T10:01:23Z,42.805,6.029,13.3030,4.60101,2470.693,2022-6-03T12:03:06Z
2022-06-03T10:04:26Z,42.805,6.029,13.3021,4.60084,2470.67,2022-6-03T12:06:09Z
2022-06-03T10:07:29Z,42.805,6.029,13.3012,4.60074,2470.684,2022-6-03T12:09:12Z
2022-06-03T10:10:33Z,42.805,6.029,13.3021,4.60092,2470.646,2022-6-03T12:12:15Z
2022-06-03T10:13:36Z,42.805,6.029,13.3004,4.60097,2470.67,2022-6-03T12:15:18Z
2022-06-03T10:16:39Z,42.805,6.029,13.3009,4.60054,2470.67,2022-6-03T12:18:21Z
2022-06-03T10:19:42Z,42.805,6.029,13.3005,4.60097,2470.67,2022-6-03T12:21:24Z
2022-06-03T10:22:45Z,42.805,6.029,13.3011,4.60070,2470.646,2022-6-03T12:24:27Z
2022-06-03T10:25:48Z,42.805,6.029,13.3008,4.60102,2470.67,2022-6-03T12:27:31Z
2022-06-03T10:28:51Z,42.805,6.029,13.3009,4.60076,2470.67,2022-6-03T12:30:34Z
2022-06-03T10:31:54Z,42.805,6.029,13.3026,4.60103,2470.67,2022-6-03T12:33:37Z
2022-06-03T10:34:58Z,42.805,6.029,13.3024,4.60089,2470.661,2022-6-03T12:36:40Z
2022-06-03T10:38:01Z,42.805,6.029,13.3028,4.60110,2470.67,2022-6-03T12:39:43Z
2022-06-03T10:41:04Z,42.805,6.029,13.3031,4.60095,2470.646,2022-6-03T12:42:46Z
2022-06-03T10:44:07Z,42.805,6.029,13.3025,4.60087,2470.67,2022-6-03T12:45:49Z
2022-06-03T10:47:10Z,42.805,6.029,13.3026,4.60104,2470.661,2022-6-03T12:48:52Z
2022-06-03T10:50:13Z,42.805,6.029,13.3026,4.60122,2470.637,2022-6-03T12:51:56Z
2022-06-03T10:53:16Z,42.805,6.029,13.3025,4.60107,2470.707,2022-6-03T12:54:59Z
2022-06-03T10:56:19Z,42.805,6.029,13.3037,4.60096,2470.6,2022-6-03T12:58:02Z
2022-06-03T10:59:23Z,42.805,6.029,13.3021,4.60101,2470.646,2022-6-03T13:01:05Z
2022-06-03T11:02:26Z,42.805,6.029,13.3026,4.60087,2470.637,2022-6-03T13:04:08Z
2022-06-03T11:05:29Z,42.805,6.029,13.3018,4.60098,2470.661,2022-6-03T13:07:11Z
2022-06-03T11:08:32Z,42.805,6.029,13.3022,4.60084,2470.67,2022-6-03T13:10:14Z
2022-06-03T11:11:35Z,42.805,6.029,13.3017,4.60095,2470.637,2022-6-03T13:13:17Z
2022-06-03T11:14:38Z,42.805,6.029,13.3013,4.60097,2470.684,2022-6-03T13:16:21Z
2022-06-03T11:17:41Z,42.805,6.029,13.3021,4.60097,2470.661,2022-6-03T13:19:24Z
2022-06-03T11:20:44Z,42.805,6.029,13.3024,4.60074,2470.684,2022-6-03T13:22:27Z
2022-06-03T11:23:48Z,42.805,6.029,13.3017,4.60088,2470.646,2022-6-03T13:25:30Z
2022-06-03T11:26:51Z,42.805,6.029,13.3019,4.60119,2470.646,2022-6-03T13:28:33Z
2022-06-03T11:29:54Z,42.805,6.029,13.3013,4.60074,2470.661,2022-6-03T13:31:36Z
2022-06-03T11:32:57Z,42.805,6.029,13.3014,4.60101,2470.661,2022-6-03T13:34:39Z
2022-06-03T11:36:00Z,42.805,6.029,13.3014,4.60100,2470.637,2022-6-03T13:37:42Z
2022-06-03T11:39:03Z,42.805,6.029,13.3008,4.60108,2470.661,2022-6-03T13:40:46Z
2022-06-03T11:42:06Z,42.805,6.029,13.3025,4.60099,2470.614,2022-6-03T13:43:49Z
2022-06-03T11:45:09Z,42.805,6.029,13.3029,4.60102,2470.646,2022-6-03T13:46:52Z
2022-06-03T11:48:13Z,42.805,6.029,13.3028,4.60117,2470.6,2022-6-03T13:49:55Z
2022-06-03T11:51:16Z,42.805,6.029,13.3023,4.60103,2470.624,2022-6-03T13:52:58Z
2022-06-03T11:54:19Z,42.805,6.029,13.3026,4.60104,2470.646,2022-6-03T13:56:01Z
2022-06-03T11:57:22Z,42.805,6.029,13.3027,4.60115,2470.624,2022-6-03T13:59:04Z
2022-06-03T12:00:25Z,42.805,6.029,13.3024,4.60101,2470.624,2022-6-03T14:02:07Z
2022-06-03T12:03:28Z,42.805,6.029,13.3032,4.60119,2470.637,2022-6-03T14:05:10Z
2022-06-03T12:06:31Z,42.805,6.029,13.3036,4.60103,2470.624,2022-6-03T14:08:14Z
2022-06-03T12:09:34Z,42.805,6.029,13.3017,4.60081,2470.661,2022-6-03T14:11:17Z
2022-06-03T12:12:37Z,42.805,6.029,13.3017,4.60095,2470.614,2022-6-03T14:14:20Z
2022-06-03T12:15:41Z,42.805,6.029,13.3018,4.60107,2470.614,2022-6-03T14:17:23Z
2022-06-03T12:18:44Z,42.805,6.029,13.3019,4.60119,2470.624,2022-6-03T14:20:26Z
2022-06-03T12:21:47Z,42.805,6.029,13.3022,4.60106,2470.614,2022-6-03T14:23:29Z
2022-06-03T12:24:50Z,42.805,6.029,13.3029,4.60112,2470.661,2022-6-03T14:26:32Z
2022-06-03T12:27:53Z,42.805,6.029,13.3036,4.60114,2470.614,2022-6-03T14:29:35Z
2022-06-03T12:30:56Z,42.805,6.029,13.3027,4.60102,2470.6,2022-6-03T14:32:39Z
2022-06-03T12:33:59Z,42.805,6.029,13.3019,4.60103,2470.637,2022-6-03T14:35:42Z
2022-06-03T12:37:02Z,42.805,6.029,13.3019,4.60119,2470.614,2022-6-03T14:38:45Z
2022-06-03T12:40:06Z,42.805,6.029,13.3036,4.60092,2470.577,2022-6-03T14:41:48Z
2022-06-03T12:43:09Z,42.805,6.029,13.3026,4.60092,2470.577,2022-6-03T14:44:51Z
2022-06-03T12:46:12Z,42.805,6.029,13.3021,4.60095,2470.614,2022-6-03T14:47:54Z
2022-06-03T12:49:15Z,42.805,6.029,13.3026,4.60104,2470.637,2022-6-03T14:50:57Z
2022-06-03T12:52:18Z,42.805,6.029,13.3026,4.60113,2470.661,2022-6-03T14:54:00Z
2022-06-03T12:55:21Z,42.805,6.029,13.3026,4.60110,2470.591,2022-6-03T14:57:04Z
2022-06-03T12:58:24Z,42.805,6.029,13.3015,4.60115,2470.624,2022-6-03T15:00:07Z
2022-06-03T13:01:27Z,42.805,6.029,13.3039,4.60102,2470.661,2022-6-03T15:03:10Z
2022-06-03T13:04:31Z,42.805,6.029,13.3026,4.60111,2470.6,2022-6-03T15:06:13Z
2022-06-03T13:07:34Z,42.805,6.029,13.3019,4.60111,2470.6,2022-6-03T15:09:16Z
2022-06-03T13:10:37Z,42.805,6.029,13.3037,4.60104,2470.624,2022-6-03T15:12:19Z
2022-06-03T13:13:40Z,42.805,6.029,13.3034,4.60147,2470.6,2022-6-03T15:15:22Z
2022-06-03T13:16:43Z,42.805,6.029,13.3035,4.60130,2470.577,2022-6-03T15:18:25Z
2022-06-03T13:19:46Z,42.805,6.029,13.3027,4.60140,2470.553,2022-6-03T15:21:29Z
2022-06-03T13:22:49Z,42.805,6.029,13.3021,4.60117,2470.577,2022-6-03T15:24:32Z
2022-06-03T13:25:52Z,42.805,6.029,13.3022,4.60123,2470.577,2022-6-03T15:27:35Z
2022-06-03T13:28:55Z,42.805,6.029,13.3024,4.60097,2470.591,2022-6-03T15:30:38Z
2022-06-03T13:31:59Z,42.805,6.029,13.3015,4.60091,2470.614,2022-6-03T15:33:41Z
2022-06-03T13:35:02Z,42.805,6.029,13.3022,4.60088,2470.6,2022-6-03T15:36:44Z
2022-06-03T13:38:05Z,42.805,6.029,13.3019,4.60107,2470.591,2022-6-03T15:39:47Z
2022-06-03T13:41:08Z,42.805,6.029,13.3029,4.60101,2470.577,2022-6-03T15:42:50Z
2022-06-03T13:44:11Z,42.805,6.029,13.3027,4.60108,2470.6,2022-6-03T15:45:54Z
2022-06-03T13:47:14Z,42.805,6.029,13.3028,4.60104,2470.637,2022-6-03T15:48:57Z
2022-06-03T13:50:17Z,42.805,6.029,13.3024,4.60130,2470.553,2022-6-03T15:52:00Z
2022-06-03T13:53:20Z,42.805,6.029,13.3029,4.60094,2470.591,2022-6-03T15:55:03Z
2022-06-03T13:56:24Z,42.805,6.029,13.3023,4.60119,2470.553,2022-6-03T15:58:06Z
2022-06-03T13:59:27Z,42.805,6.029,13.3024,4.60092,2470.567,2022-6-03T16:01:09Z
2022-06-03T14:02:30Z,42.805,6.029,13.3020,4.60091,2470.637,2022-6-03T16:04:12Z
2022-06-03T14:05:33Z,42.805,6.029,13.3019,4.60090,2470.577,2022-6-03T16:07:15Z
2022-06-03T14:08:36Z,42.805,6.029,13.3056,4.60110,2470.591,2022-6-03T16:10:18Z
2022-06-03T14:11:39Z,42.805,6.029,13.3039,4.60119,2470.591,2022-6-03T16:13:22Z
2022-06-03T14:14:42Z,42.805,6.029,13.3036,4.60118,2470.614,2022-6-03T16:16:25Z
2022-06-03T14:17:45Z,42.805,6.029,13.3034,4.60069,2470.567,2022-6-03T16:19:28Z
2022-06-03T14:20:49Z,42.805,6.029,13.3013,4.60054,2470.553,2022-6-03T16:22:31Z
2022-06-03T14:23:52Z,42.805,6.029,13.3012,4.60054,2470.577,2022-6-03T16:25:34Z
2022-06-03T14:26:55Z,42.805,6.029,13.3028,4.60063,2470.567,2022-6-03T16:28:37Z
2022-06-03T14:29:58Z,42.805,6.029,13.3006,4.60039,2470.577,2022-6-03T16:31:40Z
2022-06-03T14:33:01Z,42.805,6.029,13.3021,4.60116,2470.6,2022-6-03T16:34:43Z
2022-06-03T14:36:04Z,42.805,6.029,13.3023,4.60099,2470.577,2022-6-03T16:37:47Z
2022-06-03T14:39:07Z,42.805,6.029,13.3024,4.60060,2470.553,2022-6-03T16:40:50Z
2022-06-03T14:42:10Z,42.805,6.029,13.3021,4.60053,2470.553,2022-6-03T16:43:53Z
2022-06-03T14:45:13Z,42.805,6.029,13.3037,4.60067,2470.577,2022-6-03T16:46:56Z
2022-06-03T14:48:17Z,42.805,6.029,13.3031,4.60058,2470.539,2022-6-03T16:49:59Z
2022-06-03T14:51:20Z,42.805,6.029,13.3042,4.60070,2470.577,2022-6-03T16:53:02Z
2022-06-03T14:54:23Z,42.805,6.029,13.3033,4.60057,2470.553,2022-6-03T16:56:05Z
2022-06-03T14:57:26Z,42.805,6.029,13.3027,4.60069,2470.553,2022-6-03T16:59:08Z
2022-06-03T15:00:29Z,42.805,6.029,13.3024,4.60066,2470.577,2022-6-03T17:02:12Z
2022-06-03T15:03:32Z,42.805,6.029,13.3026,4.60075,2470.553,2022-6-03T17:05:15Z
2022-06-03T15:06:35Z,42.805,6.029,13.3031,4.60063,2470.577,2022-6-03T17:08:18Z
2022-06-03T15:09:38Z,42.805,6.029,13.3019,4.60047,2470.591,2022-6-03T17:11:21Z
2022-06-03T15:12:42Z,42.805,6.029,13.3027,4.60068,2470.544,2022-6-03T17:14:24Z